FW3274 Weather Reports


Display with metric or nautical units.
time (UTC)temp
F
wind
direction
speed
MPH
gust
MPH
rain 1hr
in
rain 24hr
in
rain mn
in
humidity
%
barometer
mb
20260504021510 57 92 0.0 0.0 0.00 0.00 0.00 65 1013.6
20260504020008 57 92 0.0 0.0 0.00 0.00 0.00 65 1013.5
20260504014504 58 92 0.0 0.0 0.00 0.00 0.00 65 1013.5
20260504013005 58 92 0.0 0.0 0.00 0.00 0.00 63 1013.5
20260504011502 58 93 0.0 0.0 0.00 0.00 0.00 63 1013.6
20260504004601 58 93 0.0 0.0 0.00 0.00 0.00 62 1013.7
20260504003057 59 93 0.0 0.0 0.00 0.00 0.00 61 1013.7
20260504001606 59 93 0.0 0.0 0.00 0.00 0.00 61 1013.7
20260504000058 59 93 0.0 0.0 0.00 0.00 0.00 61 1013.8
20260503234555 59 93 0.0 0.0 0.00 0.00 0.00 61 1013.9
20260503233100 59 93 0.0 0.0 0.00 0.00 0.00 61 1014.0
20260503231556 59 93 0.0 0.0 0.00 0.00 0.00 61 1014.0
20260503230053 59 93 0.0 0.0 0.00 0.00 0.00 61 1014.1
20260503224552 59 93 0.0 0.0 0.00 0.00 0.00 60 1014.1
20260503223051 59 93 0.0 0.0 0.00 0.00 0.00 60 1014.1
20260503221550 59 93 0.0 0.0 0.00 0.00 0.00 59 1013.9
20260503220049 59 93 0.0 0.0 0.00 0.00 0.00 58 1014.0
20260503214559 59 93 0.0 0.0 0.00 0.00 0.00 59 1014.0
20260503213049 59 93 0.0 0.0 0.00 0.00 0.00 59 1014.0
20260503211553 60 93 0.0 0.0 0.00 0.00 0.00 58 1014.0
20260503210047 61 93 0.0 0.0 0.00 0.00 0.00 57 1014.0
20260503204554 61 93 0.0 0.0 0.00 0.00 0.00 55 1013.9
20260503203050 62 93 0.0 0.0 0.00 0.00 0.00 55 1013.9
20260503201546 62 93 0.0 0.0 0.00 0.00 0.00 54 1013.9
20260503200045 63 93 0.0 0.0 0.00 0.00 0.00 54 1013.9
20260503194547 64 93 0.0 0.0 0.00 0.00 0.00 53 1013.9
20260503193057 64 93 0.0 0.0 0.00 0.00 0.00 52 1013.9
20260503191545 65 93 0.0 0.0 0.00 0.00 0.00 52 1013.7
20260503190100 65 93 0.0 0.0 0.00 0.00 0.00 49 1013.4
20260503184543 67 93 0.0 0.0 0.00 0.00 0.00 47 1013.3
20260503183142 67 93 0.0 0.0 0.00 0.00 0.00 44 1013.2
20260503181542 68 93 0.0 0.0 0.00 0.00 0.00 43 1013.1
20260503180052 69 93 0.0 0.0 0.00 0.00 0.00 41 1013.0
20260503174540 70 93 0.0 0.0 0.00 0.00 0.00 40 1013.0
20260503173101 71 91 0.0 0.0 0.00 0.00 0.00 37 1012.9
20260503171548 72 90 0.0 0.0 0.00 0.00 0.00 37 1012.8
20260503081549 70 134 0.0 0.0 0.00 0.00 0.00 47 1016.0
20260503071548 68 49 0.0 0.0 0.00 0.00 0.00 54 1016.2
20260503054535 62 48 0.0 0.0 0.00 0.00 0.00 59 1016.2
20260503053023 59 48 0.0 0.0 0.00 0.00 0.00 62 1016.1
20260503051521 58 48 0.0 0.0 0.00 0.00 0.00 64 1016.2
20260503050021 56 48 0.0 0.0 0.00 0.00 0.00 67 1016.1
20260503044520 55 48 0.0 0.0 0.00 0.00 0.00 68 1016.1
20260503043019 53 48 0.0 0.0 0.00 0.00 0.00 71 1016.1
20260503041519 53 71 0.0 0.0 0.00 0.00 0.00 70 1016.2
20260503040019 54 71 0.0 0.0 0.00 0.00 0.00 70 1016.1
20260503034518 53 71 0.0 0.0 0.00 0.00 0.00 71 1016.1
20260503033025 53 71 0.0 0.0 0.00 0.00 0.00 72 1016.1
20260503031515 53 71 0.0 0.0 0.00 0.00 0.00 71 1016.2
20260503030013 53 71 0.0 0.0 0.00 0.00 0.00 70 1016.3
20260503024513 53 71 0.0 0.0 0.00 0.00 0.00 70 1016.4
20260503023010 54 71 0.0 0.0 0.00 0.00 0.00 69 1016.4